Tracking 30101 objects as of 14-Dec-2024
HD Live streaming from Space Station
objects crossing your sky now

STARLINK-6036

Track STARLINK-6036 now!
10-day predictions
STARLINK-6036 is classified as:


NORAD ID: 56800
Int'l Code: 2023-078AK
Perigee: 577.1 km
Apogee: 581.3 km
Inclination: 70.0 °
Period: 96.1 minutes
Semi major axis: 6950 km
RCS: Unknown
Launch date: May 31, 2023
Source: United States (US)
Launch site: AIR FORCE WESTERN TEST RANGE (AFWTR)
Your satellite tracking list
Your tracking list is empty




NASA's NSSDC Master Catalog

Two Line Element Set (TLE):
1 56800U 23078AK  24348.55692450  .00001206  00000-0  10883-3 0  9998
2 56800  69.9997  41.9736 0003059 269.1722  90.9087 14.98329315 85366
Source of the keplerian elements: AFSPC